Location: Newark
(42.6681°N, 4.0833°W)
Time: 21:01:29
(UTC+00:00)

X-37B - Pass Details

Date: 05 October 2020
Orbit: 382 x 392 km, 45.0° (Epoch: 15 October)

Event Time Altitude Azimuth Distance (km) Brightness Sun altitude
Rises 19:22:50 0° 256° (WSW) 2,262 5.7 -17.8°
Reaches altitude 10° 19:24:55 10° 258° (WSW) 1,407 4.4 -18.2°
Maximum altitude 19:28:05 78° 344° (NNW) 397 0.5 -18.8°
Enters shadow 19:28:18 72° 34° (NNE) 408 0.5 -18.8°
